Joint Base Elmendorf-Richardson, AK

12:27 AM AKST on February 24, 2017 (GMT -0900)
Elmendorf Air Force Base

Weather History for PAED - December, 2013

Change the Weather History Date:

Friday, December 6, 2013

  Actual Average Record
Temperature  
Mean Temperature 31 °F -  
Max Temperature 32 °F 21 °F 39 °F (2000)
Min Temperature 30 °F 9 °F -29 °F (1975)
Degree Days  
Heating Degree Days 34    
Moisture  
Dew Point 32 °F    
Average Humidity 100    
Maximum Humidity 100    
Minimum Humidity 93    
Precipitation  
Precipitation 0.00 in - - ()
Sea Level Pressure  
Sea Level Pressure 30.53 in    
Wind  
Wind Speed 3 mph (WNW)    
Max Wind Speed 8 mph    
Max Gust Speed -    
Visibility 9 miles    
Events Rain    
Averages and records for this station are not official NWS values.
T = Trace of Precipitation, MM = Missing Value Source: NWS Daily Summary

Daily Weather History Graph

Daily Weather History Graph

Search for Another Location

Airport or City:

Trip Planner

Search our weather history database for the weather conditions in past years. The results will help you decide how hot, cold, wet, or windy it might be!

Date:

Astronomy

Dec. 06, 2013 Rise Set
Actual Time 9:56 AM AKST 3:44 PM AKST
Civil Twilight 8:56 AM AKST 4:44 PM AKST
Nautical Twilight 7:57 AM AKST 5:42 PM AKST
Astronomical Twilight 7:04 AM AKST 6:36 PM AKST
Moon 12:17 PM AKST (12/6) 9:25 PM AKST (12/6)
Length of Visible Light 7h 47m
Length of Day
5h 48m
Waxing Crescent, 20% of the Moon is Illuminated
Dec 6
Waxing Crescent
Dec 9
First Quarter
Dec 17
Full
Dec 25
Last Quarter
Jan 1
New

Hourly Weather History & Observations

Time (AKST) Temp. Windchill Dew Point Humidity Pressure Visibility Wind Dir Wind Speed Gust Speed Precip Events Conditions
12:14 AM 32.0 °F - 32.0 °F 100% 30.53 in 10.0 mi NW 2.3 mph - N/A   Overcast
12:19 AM 32.0 °F 27.5 °F 32.0 °F 100% 30.53 in 10.0 mi NW 4.6 mph - N/A   Overcast
12:24 AM 32.0 °F 28.7 °F 32.0 °F 100% 30.53 in 9.0 mi NW 3.5 mph - N/A   Light Freezing Drizzle
12:29 AM 32.0 °F 27.5 °F 32.0 °F 100% 30.53 in 9.0 mi NW 4.6 mph - N/A   Light Freezing Drizzle
12:39 AM 32.0 °F 27.5 °F 32.0 °F 100% 30.53 in 10.0 mi NW 4.6 mph - N/A   Light Freezing Drizzle
12:58 AM 30.4 °F 25.6 °F 30.2 °F 99% 30.53 in 10.0 mi WNW 4.6 mph - 0.00 in   Overcast
1:08 AM 32.0 °F - 30.2 °F 93% 30.53 in 10.0 mi North 1.2 mph - N/A   Overcast
1:13 AM 32.0 °F 27.5 °F 32.0 °F 100% 30.53 in 10.0 mi WNW 4.6 mph - N/A   Overcast
1:15 AM 32.0 °F - 32.0 °F 100% 30.53 in 10.0 mi Variable 2.3 mph - N/A   Light Freezing Drizzle
1:25 AM 32.0 °F - 32.0 °F 100% 30.54 in 10.0 mi Calm Calm - N/A   Light Freezing Drizzle
1:32 AM 32.0 °F - 32.0 °F 100% 30.54 in 10.0 mi Calm Calm - N/A   Overcast
1:58 AM 30.7 °F - 30.6 °F 99% 30.54 in 10.0 mi Calm Calm - 0.00 in   Overcast
2:58 AM 30.7 °F - 30.6 °F 99% 30.54 in 10.0 mi Calm Calm - N/A   Overcast
3:18 AM 32.0 °F 24.8 °F 32.0 °F 100% 30.53 in 10.0 mi West 8.1 mph - N/A   Overcast
3:58 AM 30.6 °F 24.7 °F 30.4 °F 99% 30.53 in 10.0 mi WNW 5.8 mph - N/A   Overcast
4:03 AM 32.0 °F 27.5 °F 32.0 °F 100% 30.53 in 10.0 mi WNW 4.6 mph - N/A   Overcast
4:58 AM 32.0 °F - 32.0 °F 100% 30.53 in 10.0 mi Calm Calm - N/A   Overcast
5:08 AM 32.0 °F 27.5 °F 32.0 °F 100% 30.53 in 10.0 mi WSW 4.6 mph - N/A   Overcast
5:15 AM 32.0 °F 26.4 °F 32.0 °F 100% 30.53 in 10.0 mi WSW 5.8 mph - N/A   Light Drizzle
5:20 AM 32.0 °F 27.5 °F 32.0 °F 100% 30.53 in 10.0 mi West 4.6 mph - N/A   Light Drizzle
5:26 AM 32.0 °F - 32.0 °F 100% 30.54 in 10.0 mi NW 1.2 mph - N/A   Overcast
5:44 AM 32.0 °F 25.6 °F 32.0 °F 100% 30.53 in 10.0 mi WNW 6.9 mph - N/A   Light Drizzle
5:54 AM 32.0 °F 26.4 °F 32.0 °F 100% 30.53 in 8.0 mi NW 5.8 mph - N/A   Light Drizzle
5:59 AM 32.0 °F 26.4 °F 32.0 °F 100% 30.53 in 8.0 mi NW 5.8 mph - 0.00 in   Overcast
6:17 AM 32.0 °F 26.4 °F 32.0 °F 100% 30.53 in 10.0 mi West 5.8 mph - N/A   Overcast
6:42 AM 32.0 °F 27.5 °F 32.0 °F 100% 30.52 in 10.0 mi WNW 4.6 mph - N/A   Light Freezing Drizzle
6:55 AM 32.0 °F 26.4 °F 32.0 °F 100% 30.53 in 10.0 mi NW 5.8 mph - N/A   Light Freezing Drizzle
6:58 AM 32.0 °F 26.4 °F 32.0 °F 100% 30.53 in 10.0 mi NW 5.8 mph - 0.00 in   Light Freezing Drizzle
7:09 AM 32.0 °F 26.4 °F 32.0 °F 100% 30.52 in 10.0 mi NW 5.8 mph - N/A   Overcast
7:34 AM 32.0 °F - 32.0 °F 100% 30.52 in 10.0 mi NW 2.3 mph - N/A   Overcast
7:58 AM 31.8 °F - 31.6 °F 99% 30.53 in 10.0 mi Calm Calm - 0.00 in   Overcast
8:03 AM 32.0 °F - 32.0 °F 100% 30.52 in 10.0 mi Calm Calm - N/A   Overcast
8:08 AM 32.0 °F - 32.0 °F 100% 30.52 in 10.0 mi Calm Calm - N/A   Overcast
8:58 AM 31.6 °F - 31.5 °F 99% 30.53 in 10.0 mi Calm Calm - N/A   Overcast
9:08 AM 32.0 °F - 32.0 °F 100% 30.53 in 10.0 mi Calm Calm - N/A   Light Drizzle
9:23 AM 32.0 °F - 32.0 °F 100% 30.54 in 10.0 mi Calm Calm - N/A   Overcast
9:38 AM 32.0 °F - 32.0 °F 100% 30.54 in 10.0 mi Calm Calm - N/A   Overcast
9:48 AM 32.0 °F 28.7 °F 32.0 °F 100% 30.54 in 10.0 mi NW 3.5 mph - N/A   Overcast
9:58 AM 31.6 °F - 31.5 °F 99% 30.54 in 10.0 mi Calm Calm - 0.00 in   Overcast
10:08 AM 32.0 °F - 32.0 °F 100% 30.54 in 10.0 mi Calm Calm - N/A   Overcast
10:13 AM 32.0 °F 27.5 °F 32.0 °F 100% 30.54 in 10.0 mi Variable 4.6 mph - N/A   Overcast
10:38 AM 32.0 °F 28.7 °F 32.0 °F 100% 30.54 in 10.0 mi WNW 3.5 mph - N/A   Overcast
10:48 AM 32.0 °F 28.7 °F 32.0 °F 100% 30.54 in 10.0 mi WNW 3.5 mph - N/A   Overcast
10:53 AM 32.0 °F 28.7 °F 32.0 °F 100% 30.54 in 10.0 mi WNW 3.5 mph - N/A   Overcast
10:58 AM 32.0 °F - 31.8 °F 99% 30.54 in 10.0 mi NNW 1.2 mph - N/A   Overcast
11:08 AM 32.0 °F - 32.0 °F 100% 30.54 in 10.0 mi NW 1.2 mph - N/A   Overcast
11:37 AM 32.0 °F - 32.0 °F 100% 30.54 in 10.0 mi WNW 2.3 mph - N/A Rain Light Rain
11:52 AM 32.0 °F 27.5 °F 32.0 °F 100% 30.54 in 10.0 mi WNW 4.6 mph - N/A   Light Drizzle
11:58 AM 32.2 °F - 32.0 °F 99% 30.54 in 10.0 mi North 1.2 mph - 0.00 in   Light Drizzle
11:59 AM 32.0 °F - 32.0 °F 100% 30.54 in 10.0 mi NNW 1.2 mph - N/A   Overcast
12:14 PM 32.0 °F 28.7 °F 32.0 °F 100% 30.54 in 10.0 mi West 3.5 mph - N/A   Overcast
12:24 PM 32.0 °F 27.5 °F 32.0 °F 100% 30.54 in 10.0 mi West 4.6 mph - N/A   Overcast
12:54 PM 32.0 °F 26.4 °F 32.0 °F 100% 30.53 in 10.0 mi West 5.8 mph - N/A   Overcast
12:59 PM 32.4 °F 27.9 °F 32.2 °F 99% 30.54 in 10.0 mi WNW 4.6 mph - 0.00 in   Overcast
1:09 PM 32.0 °F 27.5 °F 32.0 °F 100% 30.54 in 10.0 mi WNW 4.6 mph - N/A   Overcast
1:19 PM 32.0 °F 28.7 °F 32.0 °F 100% 30.54 in 10.0 mi WNW 3.5 mph - N/A   Overcast
1:24 PM 32.0 °F 28.7 °F 32.0 °F 100% 30.53 in 10.0 mi West 3.5 mph - N/A   Overcast
1:58 PM 32.7 °F 27.3 °F 32.5 °F 99% 30.53 in 10.0 mi WNW 5.8 mph - N/A   Overcast
2:29 PM 32.0 °F 28.7 °F 32.0 °F 100% 30.53 in 6.0 mi WNW 3.5 mph - N/A Rain Light Rain
2:44 PM 32.0 °F - 32.0 °F 100% 30.53 in 10.0 mi NW 2.3 mph - N/A   Overcast
2:49 PM 32.0 °F 26.4 °F 32.0 °F 100% 30.53 in 10.0 mi WNW 5.8 mph - N/A   Overcast
2:50 PM 32.0 °F 27.5 °F 32.0 °F 100% 30.53 in 10.0 mi WNW 4.6 mph - N/A   Light Drizzle
2:55 PM 32.0 °F 28.7 °F 32.0 °F 100% 30.53 in 10.0 mi WNW 3.5 mph - N/A   Light Drizzle
2:58 PM 32.0 °F 26.4 °F 32.0 °F 100% 30.52 in 10.0 mi WNW 5.8 mph - 0.00 in   Light Drizzle
3:04 PM 32.0 °F 26.4 °F 32.0 °F 100% 30.53 in 10.0 mi WNW 5.8 mph - N/A   Overcast
3:14 PM 32.0 °F - 32.0 °F 100% 30.53 in 10.0 mi NNW 1.2 mph - N/A   Overcast
3:19 PM 32.0 °F - 32.0 °F 100% 30.53 in 10.0 mi Calm Calm - N/A   Overcast
3:24 PM 32.0 °F - 32.0 °F 100% 30.53 in 10.0 mi Calm Calm - N/A   Overcast
3:58 PM 32.5 °F - 32.2 °F 99% 30.52 in 10.0 mi Calm Calm - 0.00 in   Overcast
4:23 PM 32.0 °F - 32.0 °F 100% 30.52 in 10.0 mi Calm Calm - N/A   Overcast
4:38 PM 32.0 °F - 32.0 °F 100% 30.53 in 10.0 mi NNW 2.3 mph - N/A   Overcast
4:58 PM 32.7 °F - 32.4 °F 99% 30.53 in 10.0 mi Calm Calm - N/A   Overcast
5:03 PM 32.0 °F - 32.0 °F 100% 30.53 in 10.0 mi Calm Calm - N/A   Overcast
5:15 PM 32.0 °F - 32.0 °F 100% 30.53 in 9.0 mi NNW 2.3 mph - N/A   Light Drizzle
5:25 PM 32.0 °F 28.7 °F 32.0 °F 100% 30.52 in 7.0 mi NW 3.5 mph - N/A   Light Drizzle
5:29 PM 32.0 °F - 32.0 °F 100% 30.52 in 6.0 mi NW 2.3 mph - N/A   Light Drizzle
5:30 PM 32.0 °F - 32.0 °F 100% 30.52 in 6.0 mi NW 1.2 mph - N/A   Overcast
5:40 PM 32.0 °F - 32.0 °F 100% 30.52 in 5.0 mi NW 2.3 mph - N/A   Overcast
5:58 PM 32.4 °F - 32.2 °F 99% 30.52 in 8.0 mi Calm Calm - 0.00 in   Overcast
6:03 PM 32.0 °F - 32.0 °F 100% 30.52 in 10.0 mi Calm Calm - N/A   Overcast
6:23 PM 32.0 °F - 32.0 °F 100% 30.53 in 9.0 mi Calm Calm - N/A   Overcast
6:38 PM 32.0 °F - 32.0 °F 100% 30.53 in 5.0 mi Calm Calm - N/A   Overcast
6:48 PM 32.0 °F - 32.0 °F 100% 30.53 in 3.0 mi Calm Calm - N/A   Overcast
6:53 PM 32.0 °F - 32.0 °F 100% 30.53 in 2.5 mi Calm Calm - N/A   Overcast
6:58 PM 32.5 °F - 32.2 °F 99% 30.53 in 2.5 mi Calm Calm - N/A   Overcast
7:03 PM 32.0 °F - 32.0 °F 100% 30.53 in 5.0 mi Calm Calm - N/A   Overcast
7:18 PM 32.0 °F - 32.0 °F 100% 30.54 in 10.0 mi Calm Calm - N/A   Overcast
7:41 PM 32.0 °F - 32.0 °F 100% 30.54 in 10.0 mi Calm Calm - N/A   Light Drizzle
7:58 PM 32.7 °F - 32.4 °F 99% 30.54 in 8.0 mi NNW 1.2 mph - 0.00 in   Light Drizzle
8:03 PM 32.0 °F - 32.0 °F 100% 30.54 in 9.0 mi NNW 1.2 mph - N/A   Light Drizzle
8:08 PM 32.0 °F - 32.0 °F 100% 30.54 in 7.0 mi Calm Calm - N/A   Overcast
8:13 PM 32.0 °F - 32.0 °F 100% 30.54 in 8.0 mi Calm Calm - N/A   Light Drizzle
8:19 PM 32.0 °F - 32.0 °F 100% 30.54 in 5.0 mi Calm Calm - N/A   Light Drizzle
8:20 PM 32.0 °F - 32.0 °F 100% 30.54 in 4.0 mi Calm Calm - N/A   Light Drizzle
8:21 PM 32.0 °F - 32.0 °F 100% 30.54 in 4.0 mi Calm Calm - N/A   Light Drizzle
8:23 PM 32.0 °F - 32.0 °F 100% 30.54 in 3.0 mi Calm Calm - N/A   Light Drizzle
8:40 PM 32.0 °F - 32.0 °F 100% 30.53 in 5.0 mi Calm Calm - N/A   Light Drizzle
8:42 PM 32.0 °F - 32.0 °F 100% 30.53 in 6.0 mi Calm Calm - N/A   Light Drizzle
8:44 PM 32.0 °F - 32.0 °F 100% 30.53 in 6.0 mi Calm Calm - N/A   Light Drizzle
8:58 PM 32.5 °F - 32.2 °F 99% 30.53 in 10.0 mi Calm Calm - 0.00 in   Overcast
9:03 PM 32.0 °F - 32.0 °F 100% 30.53 in 10.0 mi Calm Calm - N/A   Overcast
9:13 PM 32.0 °F - 32.0 °F 100% 30.53 in 10.0 mi Calm Calm - N/A   Overcast
9:24 PM 32.0 °F - 32.0 °F 100% 30.53 in 9.0 mi Calm Calm - N/A   Light Drizzle
9:41 PM 32.0 °F - 32.0 °F 100% 30.53 in 9.0 mi Calm Calm - N/A   Overcast
9:58 PM 32.5 °F - 32.2 °F 99% 30.52 in 10.0 mi Calm Calm - 0.00 in   Overcast
10:08 PM 32.0 °F 28.7 °F 32.0 °F 100% 30.52 in 10.0 mi West 3.5 mph - N/A   Overcast
10:33 PM 32.0 °F 27.5 °F 32.0 °F 100% 30.51 in 10.0 mi West 4.6 mph - N/A   Overcast
10:58 PM 32.9 °F 29.8 °F 32.7 °F 99% 30.50 in 10.0 mi WNW 3.5 mph - N/A   Overcast
11:33 PM 32.0 °F - 32.0 °F 100% 30.51 in 4.0 mi Calm Calm - N/A   Overcast
11:38 PM 32.0 °F - 32.0 °F 100% 30.50 in 3.0 mi North 1.2 mph - N/A   Overcast
11:43 PM 32.0 °F 27.5 °F 32.0 °F 100% 30.51 in 3.0 mi NW 4.6 mph - N/A   Overcast
11:58 PM 32.0 °F - 32.0 °F 100% 30.51 in 6.0 mi Calm Calm - N/A   Overcast